Location: ???????
(55.5931°N, 39.3286°E)
Time: 09:35:16
(UTC+00:00)

NOSS 2-3 (D) - Pass Details

Date: 14 April 2024
Orbit: 497 x 1701 km, 63.3° (Epoch: 24 April)

Event Time Altitude Azimuth Distance (km) Brightness Sun altitude
Rises 00:22:06 0° 308° (NW) 3,113 7.1 -15.0°
Reaches altitude 10° 00:24:12 10° 304° (NW) 2,323 6.4 -14.8°
Maximum altitude 00:29:26 56° 227° (SW) 1,112 4.5 -14.3°
Drops below altitude 10° 00:36:32 10° 152° (SSE) 3,121 7.0 -13.5°
Sets 00:39:45 0° 149° (SSE) 4,278 7.8 -13.2°
